DG4MND-4 Weather Reports


time (UTC)temp
F
wind
direction
speed
knots
gust
knots
rain 1hr
in
rain 24hr
in
rain mn
in
humidity
%
barometer
mb
20260507045054 47 201 0.9 3.5 0.00 0.13 0.00 93 1011.4
20260507044050 47 199 0.9 6.1 0.00 0.13 0.00 92 1011.3
20260507043047 46 219 1.7 3.5 0.00 0.13 0.00 93 1011.3
20260507042049 45 218 0.9 6.1 0.00 0.13 0.00 94 1011.1
20260507041041 46 101 0.9 3.5 0.00 0.13 0.00 94 1011.0
20260507040037 45 135 0.0 1.7 0.00 0.13 0.00 93 1010.8
20260507035033 46 224 0.0 1.7 0.00 0.13 0.00 93 1010.8
20260507034027 46 191 0.9 3.5 0.00 0.13 0.00 93 1010.7
20260507033027 46 225 0.0 1.7 0.00 0.13 0.00 92 1010.6
20260507032020 46 135 0.9 3.5 0.00 0.13 0.00 92 1010.6
20260507031017 46 198 0.9 3.5 0.00 0.13 0.00 91 1010.8
20260507030113 47 256 0.9 3.5 0.00 0.13 0.00 90 1010.7
20260507025110 47 194 0.9 6.1 0.00 0.13 0.00 90 1010.6
20260507024110 47 166 0.9 5.2 0.00 0.13 0.00 90 1010.6
20260507023103 47 118 0.9 3.5 0.00 0.13 0.00 90 1010.6
20260507022103 47 334 0.9 3.5 0.00 0.13 0.00 91 1010.5
20260507021059 47 248 0.9 5.2 0.00 0.13 0.00 92 1010.6
20260507020053 46 202 1.7 3.5 0.00 0.13 0.00 94 1010.5
20260507015049 46 171 0.9 1.7 0.00 0.13 0.00 95 1010.6
20260507014046 45 158 0.0 1.7 0.00 0.13 0.00 95 1010.4
20260507013043 45 0.0 1.7 0.00 0.13 0.00 96 1010.5
20260507012039 45 135 0.0 1.7 0.00 0.13 0.00 97 1010.5
20260507011039 44 0.0 1.7 0.00 0.13 0.00 97 1010.4
20260507010036 44 158 0.0 3.5 0.00 0.13 0.00 97 1010.5
20260507005058 44 0.0 1.7 0.00 0.13 0.00 97 1010.4
20260507004055 44 0.0 1.7 0.00 0.13 0.00 97 1010.2
20260507003052 45 0.0 1.7 0.00 0.13 0.00 96 1010.4
20260507002048 45 147 0.0 3.5 0.00 0.13 0.00 96 1010.3
20260507001045 45 135 0.9 3.5 0.00 0.13 0.00 96 1010.3
20260507000041 45 225 0.0 1.7 0.00 0.13 0.00 95 1010.4
20260506235037 46 0.0 1.7 0.00 0.13 0.00 95 1010.5
20260506234034 46 135 0.0 1.7 0.00 0.13 0.00 95 1010.5
20260506233031 46 203 0.0 1.7 0.00 0.13 0.00 94 1010.4
20260506232028 47 182 0.9 3.5 0.00 0.13 0.00 93 1010.2
20260506231026 47 218 0.9 1.7 0.00 0.13 0.00 93 1010.2
20260506230023 47 171 0.9 3.5 0.00 0.13 0.00 93 1010.2
20260506225020 47 126 0.9 3.5 0.00 0.13 0.00 93 1010.2
20260506224113 47 174 0.0 1.7 0.00 0.13 0.00 93 1010.2
20260506223110 47 180 0.0 1.7 0.00 0.13 0.00 93 1010.1
20260506222107 47 203 0.0 1.7 0.00 0.13 0.00 93 1010.0
20260506221103 47 140 0.9 3.5 0.00 0.13 0.00 93 1009.9
20260506220059 47 159 0.9 3.5 0.00 0.13 0.00 92 1010.0
20260506215056 48 181 0.9 3.5 0.00 0.13 0.13 92 1009.9
20260506214052 48 158 0.0 1.7 0.00 0.13 0.13 92 1009.8
20260506213049 48 174 0.9 1.7 0.00 0.13 0.13 91 1009.9
20260506212046 48 187 0.9 3.5 0.00 0.13 0.13 91 1009.9
20260506211042 48 164 0.9 3.5 0.00 0.13 0.13 91 1009.7
20260506210042 48 216 0.9 3.5 0.00 0.13 0.13 92 1009.8
20260506205036 48 249 0.9 6.1 0.00 0.13 0.13 92 1009.7
20260506204032 48 243 0.9 3.5 0.00 0.13 0.13 92 1009.7
20260506203029 48 217 0.9 1.7 0.00 0.13 0.13 92 1009.6
20260506202028 48 207 0.9 3.5 0.00 0.13 0.13 91 1009.6
20260506201021 48 196 0.9 3.5 0.00 0.13 0.13 91 1009.5
20260506200018 49 188 0.9 3.5 0.00 0.15 0.13 90 1009.3
20260506195115 48 175 0.9 3.5 0.00 0.17 0.13 91 1009.6
20260506194112 48 255 0.9 3.5 0.00 0.17 0.13 90 1009.4
20260506193108 49 187 0.9 5.2 0.00 0.18 0.13 90 1009.5
20260506192104 48 161 0.9 3.5 0.00 0.19 0.13 90 1009.2
20260506191104 48 161 0.9 3.5 0.00 0.19 0.13 90 1009.0
20260506190058 49 222 1.7 3.5 0.00 0.19 0.13 90 1009.0
20260506185057 49 211 1.7 6.1 0.00 0.19 0.13 89 1008.7
20260506184051 49 178 1.7 6.1 0.00 0.19 0.13 89 1008.7
20260506183047 49 159 1.7 7.0 0.00 0.19 0.13 89 1008.6
20260506182043 50 231 1.7 3.5 0.00 0.19 0.13 88 1008.4
20260506181040 50 259 0.9 3.5 0.00 0.19 0.13 88 1008.3
20260506180039 50 190 1.7 3.5 0.00 0.19 0.13 88 1008.3
20260506175034 50 161 1.7 9.6 0.00 0.19 0.13 87 1008.0
20260506174033 50 177 2.6 7.0 0.00 0.19 0.13 87 1008.1
20260506173026 50 161 1.7 6.1 0.00 0.19 0.13 87 1008.0
20260506172023 50 196 1.7 9.6 0.00 0.19 0.13 87 1007.8
20260506171022 50 171 1.7 9.6 0.00 0.19 0.13 88 1007.7
20260506170016 50 195 0.9 3.5 0.00 0.19 0.13 90 1007.6
20260506165116 50 176 0.9 3.5 0.00 0.19 0.13 89 1007.3
20260506164110 50 151 1.7 5.2 0.00 0.19 0.13 89 1007.3
20260506163109 50 235 2.6 7.8 0.00 0.19 0.13 89 1007.4
20260506162103 50 194 1.7 3.5 0.00 0.19 0.13 89 1007.6
20260506161103 50 226 1.7 3.5 0.00 0.20 0.13 90 1007.6
20260506160056 51 210 1.7 6.1 0.06 0.20 0.13 88 1007.4
20260506155052 51 196 2.6 7.0 0.06 0.20 0.13 90 1007.3
20260506154051 51 208 1.7 6.1 0.06 0.20 0.13 92 1007.2
20260506153045 51 184 1.7 7.0 0.06 0.20 0.13 93 1007.1
20260506152041 52 181 1.7 12.2 0.06 0.20 0.13 93 1006.9
20260506151038 51 153 2.6 12.2 0.06 0.20 0.13 93 1006.5
20260506150034 56 226 3.5 9.6 0.01 0.14 0.07 80 1006.2
20260506145034 61 163 0.0 1.7 0.01 0.14 0.07 73 1004.7
20260506144028 65 180 0.0 1.7 0.04 0.14 0.07 67 1004.7
20260506143024 64 203 0.9 1.7 0.06 0.14 0.07 67 1004.8
20260506142024 64 180 0.0 1.7 0.07 0.14 0.07 70 1004.9
20260506141017 61 158 0.9 3.5 0.07 0.14 0.07 78 1004.9
20260506140114 59 151 0.0 1.7 0.06 0.13 0.06 89 1004.9
20260506135114 56 68 0.9 1.7 0.06 0.13 0.06 89 1004.9
20260506134107 57 150 2.6 5.2 0.04 0.11 0.04 82 1005.5
20260506133104 59 190 0.9 1.7 0.01 0.08 0.01 79 1005.4
20260506132101 61 185 0.9 1.7 0.00 0.07 0.00 72 1005.4
20260506131105 61 180 0.9 1.7 0.00 0.07 0.00 65 1005.4
20260506130053 61 246 0.9 1.7 0.00 0.07 0.00 64 1005.2
20260506125050 62 255 0.9 1.7 0.00 0.07 0.00 62 1005.1
20260506124046 63 0 0.0 1.7 0.00 0.07 0.00 62 1004.8
20260506123043 64 310 0.0 1.7 0.00 0.07 0.00 61 1004.6
20260506122043 64 293 0.0 1.7 0.00 0.07 0.00 61 1004.8
20260506121036 62 358 0.9 6.1 0.00 0.07 0.00 64 1004.5
20260506120033 63 57 0.9 5.2 0.00 0.07 0.00 63 1004.5
20260506115032 63 343 0.0 1.7 0.00 0.08 0.00 61 1004.8
20260506114025 63 34 0.9 3.5 0.00 0.08 0.00 59 1004.9
20260506113023 63 81 0.9 1.7 0.00 0.08 0.00 59 1005.1
20260506112022 63 52 0.9 1.7 0.00 0.08 0.00 58 1005.2
20260506111015 63 77 0.9 3.5 0.00 0.08 0.00 60 1005.3
20260506110112 63 24 0.9 1.7 0.00 0.08 0.00 65 1005.2
20260506105111 63 352 0.9 3.5 0.00 0.08 0.00 66 1005.3
20260506104105 62 335 0.9 3.5 0.00 0.08 0.00 68 1005.4
20260506103102 62 60 0.9 3.5 0.00 0.08 0.00 68 1005.2
20260506102059 60 324 0.9 3.5 0.00 0.08 0.00 68 1005.4
20260506101058 60 321 0.0 1.7 0.00 0.08 0.00 70 1005.4
20260506100051 60 315 0.9 1.7 0.00 0.08 0.00 71 1005.7
20260506095048 60 271 0.9 1.7 0.00 0.08 0.00 70 1005.9
20260506094045 60 336 0.0 1.7 0.00 0.08 0.00 69 1005.9
20260506093044 61 210 0.0 1.7 0.00 0.08 0.00 68 1006.0
20260506092037 60 315 0.0 1.7 0.00 0.08 0.00 68 1005.8
20260506091034 60 338 0.0 1.7 0.00 0.08 0.00 71 1005.9
20260506090034 59 6 0.9 3.5 0.00 0.08 0.00 71 1006.0
20260506085027 59 338 0.0 1.7 0.00 0.08 0.00 74 1005.9
20260506084024 58 90 0.0 1.7 0.00 0.08 0.00 74 1005.7
20260506083021 57 248 0.0 1.7 0.00 0.08 0.00 78 1006.0
20260506082017 57 0.0 1.7 0.00 0.08 0.00 79 1006.0
20260506081114 56 225 0.0 1.7 0.00 0.08 0.00 82 1006.1
20260506080110 56 225 0.0 1.7 0.00 0.08 0.00 81 1006.0
20260506073101 55 158 0.0 1.7 0.00 0.08 0.00 84 1005.9
20260506072057 55 0.0 0.0 0.00 0.08 0.00 86 1006.1
20260506071054 54 158 0.0 1.7 0.00 0.08 0.00 87 1006.2
20260506062036 52 203 0.0 1.7 0.00 0.08 0.00 91 1006.2
20260506061036 51 0.0 0.0 0.00 0.08 0.00 92 1006.2
20260506051113 49 0.0 1.7 0.00 0.08 0.00 99 1006.6
20260506050109 48 0.0 1.7 0.00 0.08 0.00 99 1006.6